Location: Helion Bumpstead
(52.0500°N, 0.4000°E)
Time: 10:47:32
(UTC+00:00)

Cosmos 1725 Rocket - Pass Details

Date: 15 November 2025
Orbit: 962 x 989 km, 82.9° (Epoch: 09 December)

Event Time Altitude Azimuth Distance (km) Brightness Sun altitude
Rises 04:20:36 0° 348° (NNW) 3,716 7.0 -27.1°
Reaches altitude 10° 04:23:09 10° 346° (NNW) 2,763 6.3 -26.7°
Maximum altitude 04:29:25 66° 266° (W) 1,075 3.9 -25.8°
Drops below altitude 10° 04:35:38 10° 185° (S) 2,736 6.3 -24.8°
Sets 04:38:08 0° 183° (S) 3,676 7.0 -24.4°
